Year,Month,Day,Hour,Minute,Value (Times are PST for temperature in C)
2008,07,20,00,00,11.80
2008,07,20,00,01,11.80
2008,07,20,00,02,11.80
2008,07,20,00,03,11.80
2008,07,20,00,04,11.80
2008,07,20,00,05,11.80
2008,07,20,00,06,11.80
2008,07,20,00,07,11.80
2008,07,20,00,08,11.80
2008,07,20,00,09,11.80
2008,07,20,00,10,11.80
2008,07,20,00,11,11.80
2008,07,20,00,12,11.80
2008,07,20,00,13,11.80
2008,07,20,00,14,11.80
2008,07,20,00,15,11.80
2008,07,20,00,16,11.80
2008,07,20,00,17,11.80
2008,07,20,00,18,11.80
2008,07,20,00,19,11.80
2008,07,20,00,20,11.80
2008,07,20,00,21,11.80
2008,07,20,00,22,11.80
2008,07,20,00,23,11.80
2008,07,20,00,24,11.80
2008,07,20,00,25,11.80
2008,07,20,00,26,11.80
2008,07,20,00,27,11.80
2008,07,20,00,28,11.80
2008,07,20,00,29,11.80
2008,07,20,00,30,11.80
2008,07,20,00,31,11.80
2008,07,20,00,32,11.80
2008,07,20,00,33,11.80
2008,07,20,00,34,11.80
2008,07,20,00,35,11.80
2008,07,20,00,36,11.80
2008,07,20,00,37,11.80
2008,07,20,00,38,11.80
2008,07,20,00,39,11.80
2008,07,20,00,40,11.80
2008,07,20,00,41,11.80
2008,07,20,00,42,11.80
2008,07,20,00,43,11.80
2008,07,20,00,44,11.80
2008,07,20,00,45,11.80
2008,07,20,00,46,11.80
2008,07,20,00,47,11.80
2008,07,20,00,48,11.80
2008,07,20,00,49,11.80
2008,07,20,00,50,11.80
2008,07,20,00,51,11.80
2008,07,20,00,52,11.80
2008,07,20,00,53,11.80
2008,07,20,00,54,11.70
2008,07,20,00,55,11.70
2008,07,20,00,56,11.70
2008,07,20,00,57,11.70
2008,07,20,00,58,11.70
2008,07,20,00,59,11.70
2008,07,20,01,00,11.70
2008,07,20,01,01,11.70
2008,07,20,01,02,11.70
2008,07,20,01,03,11.70
2008,07,20,01,04,11.60
2008,07,20,01,05,11.60
2008,07,20,01,06,11.60
2008,07,20,01,07,11.60
2008,07,20,01,08,11.60
2008,07,20,01,09,11.60
2008,07,20,01,10,11.60
2008,07,20,01,11,11.60
2008,07,20,01,12,11.60
2008,07,20,01,13,11.60
2008,07,20,01,14,11.60
2008,07,20,01,15,11.60
2008,07,20,01,16,11.60
2008,07,20,01,17,11.60
2008,07,20,01,18,11.60
2008,07,20,01,19,11.60
2008,07,20,01,20,11.60
2008,07,20,01,21,11.60
2008,07,20,01,22,11.60
2008,07,20,01,23,11.60
2008,07,20,01,24,11.60
2008,07,20,01,25,11.60
2008,07,20,01,26,11.60
2008,07,20,01,27,11.60
2008,07,20,01,28,11.60
2008,07,20,01,29,11.60
2008,07,20,01,30,11.60
2008,07,20,01,31,11.60
2008,07,20,01,32,11.60
2008,07,20,01,33,11.60
2008,07,20,01,34,11.60
2008,07,20,01,35,11.60
2008,07,20,01,36,11.60
2008,07,20,01,37,11.60
2008,07,20,01,38,11.60
2008,07,20,01,39,11.60
2008,07,20,01,40,11.60
2008,07,20,01,41,11.60
2008,07,20,01,42,11.60
2008,07,20,01,43,11.60
2008,07,20,01,44,11.60
2008,07,20,01,45,11.60
2008,07,20,01,46,11.60
2008,07,20,01,47,11.60
2008,07,20,01,48,11.60
2008,07,20,01,49,11.60
2008,07,20,01,50,11.60
2008,07,20,01,51,11.60
2008,07,20,01,52,11.60
2008,07,20,01,53,11.60
2008,07,20,01,54,11.60
2008,07,20,01,55,11.60
2008,07,20,01,56,11.60
2008,07,20,01,57,11.60
2008,07,20,01,58,11.60
2008,07,20,01,59,11.60
2008,07,20,02,00,11.50
2008,07,20,02,01,11.40
2008,07,20,02,02,11.40
2008,07,20,02,03,11.40
2008,07,20,02,04,11.40
2008,07,20,02,05,11.40
2008,07,20,02,06,11.40
2008,07,20,02,07,11.40
2008,07,20,02,08,11.40
2008,07,20,02,09,11.40
2008,07,20,02,10,11.40
2008,07,20,02,11,11.40
2008,07,20,02,12,11.40
2008,07,20,02,13,11.40
2008,07,20,02,14,11.40
2008,07,20,02,15,11.40
2008,07,20,02,16,11.40
2008,07,20,02,17,11.40
2008,07,20,02,18,11.40
2008,07,20,02,19,11.40
2008,07,20,02,20,11.40
2008,07,20,02,21,11.30
2008,07,20,02,22,11.30
2008,07,20,02,23,11.30
2008,07,20,02,24,11.30
2008,07,20,02,25,11.30
2008,07,20,02,26,11.30
2008,07,20,02,27,11.30
2008,07,20,02,28,11.30
2008,07,20,02,29,11.30
2008,07,20,02,30,11.30
2008,07,20,02,31,11.30
2008,07,20,02,32,11.30
2008,07,20,02,33,11.30
2008,07,20,02,34,11.20
2008,07,20,02,35,11.20
2008,07,20,02,36,11.20
2008,07,20,02,37,11.20
2008,07,20,02,38,11.20
2008,07,20,02,39,11.20
2008,07,20,02,40,11.20
2008,07,20,02,41,11.20
2008,07,20,02,42,11.20
2008,07,20,02,43,11.20
2008,07,20,02,44,11.20
2008,07,20,02,45,11.20
2008,07,20,02,46,11.20
2008,07,20,02,47,11.20
2008,07,20,02,48,11.20
2008,07,20,02,49,11.20
2008,07,20,02,50,11.20
2008,07,20,02,51,11.10
2008,07,20,02,52,11.10
2008,07,20,02,53,11.10
2008,07,20,02,54,11.10
2008,07,20,02,55,11.10
2008,07,20,02,56,11.10
2008,07,20,02,57,11.10
2008,07,20,02,58,11.10
2008,07,20,02,59,11.10
2008,07,20,03,00,11.10
2008,07,20,03,01,11.10
2008,07,20,03,02,11.10
2008,07,20,03,03,11.10
2008,07,20,03,04,11.10
2008,07,20,03,05,11.10
2008,07,20,03,06,11.10
2008,07,20,03,07,11.10
2008,07,20,03,08,11.10
2008,07,20,03,09,11.10
2008,07,20,03,10,11.10
2008,07,20,03,11,11.10
2008,07,20,03,12,11.10
2008,07,20,03,13,11.10
2008,07,20,03,14,11.10
2008,07,20,03,15,11.10
2008,07,20,03,16,11.10
2008,07,20,03,17,11.10
2008,07,20,03,18,11.10
2008,07,20,03,19,11.10
2008,07,20,03,20,11.10
2008,07,20,03,21,11.10
2008,07,20,03,22,10.90
2008,07,20,03,23,10.90
2008,07,20,03,24,10.90
2008,07,20,03,25,10.90
2008,07,20,03,26,10.90
2008,07,20,03,27,10.90
2008,07,20,03,28,10.90
2008,07,20,03,29,10.90
2008,07,20,03,30,10.90
2008,07,20,03,31,10.90
2008,07,20,03,32,10.90
2008,07,20,03,33,10.90
2008,07,20,03,34,10.90
2008,07,20,03,35,10.90
2008,07,20,03,36,10.90
2008,07,20,03,37,10.90
2008,07,20,03,38,10.90
2008,07,20,03,39,10.90
2008,07,20,03,40,10.90
2008,07,20,03,41,10.90
2008,07,20,03,42,10.90
2008,07,20,03,43,10.90
2008,07,20,03,44,10.90
2008,07,20,03,45,10.90
2008,07,20,03,46,10.90
2008,07,20,03,47,10.90
2008,07,20,03,48,10.90
2008,07,20,03,49,10.90
2008,07,20,03,50,10.90
2008,07,20,03,51,10.90
2008,07,20,03,52,10.90
2008,07,20,03,53,10.90
2008,07,20,03,54,10.90
2008,07,20,03,55,10.90
2008,07,20,03,56,10.90
2008,07,20,03,57,10.90
2008,07,20,03,58,10.90
2008,07,20,03,59,10.90
2008,07,20,04,00,10.90
2008,07,20,04,01,10.90
2008,07,20,04,02,10.90
2008,07,20,04,03,10.90
2008,07,20,04,04,10.90
2008,07,20,04,05,10.90
2008,07,20,04,06,10.90
2008,07,20,04,07,10.90
2008,07,20,04,08,10.90
2008,07,20,04,09,10.90
2008,07,20,04,10,10.90
2008,07,20,04,11,10.90
2008,07,20,04,12,10.90
2008,07,20,04,13,10.90
2008,07,20,04,14,10.90
2008,07,20,04,15,10.90
2008,07,20,04,16,10.90
2008,07,20,04,17,10.90
2008,07,20,04,18,10.90
2008,07,20,04,19,10.90
2008,07,20,04,20,10.80
2008,07,20,04,21,10.90
2008,07,20,04,22,10.90
2008,07,20,04,23,10.90
2008,07,20,04,24,10.90
2008,07,20,04,25,10.90
2008,07,20,04,26,10.90
2008,07,20,04,27,10.90
2008,07,20,04,28,10.90
2008,07,20,04,29,10.90
2008,07,20,04,30,10.90
2008,07,20,04,31,10.80
2008,07,20,04,32,10.80
2008,07,20,04,33,10.80
2008,07,20,04,34,10.80
2008,07,20,04,35,10.80
2008,07,20,04,36,10.80
2008,07,20,04,37,10.80
2008,07,20,04,38,10.80
2008,07,20,04,39,10.80
2008,07,20,04,40,10.80
2008,07,20,04,41,10.80
2008,07,20,04,42,10.80
2008,07,20,04,43,10.70
2008,07,20,04,44,10.70
2008,07,20,04,45,10.70
2008,07,20,04,46,10.70
2008,07,20,04,47,10.70
2008,07,20,04,48,10.60
2008,07,20,04,49,10.60
2008,07,20,04,50,10.60
2008,07,20,04,51,10.60
2008,07,20,04,52,10.60
2008,07,20,04,53,10.60
2008,07,20,04,54,10.60
2008,07,20,04,55,10.60
2008,07,20,04,56,10.60
2008,07,20,04,57,10.60
2008,07,20,04,58,10.60
2008,07,20,04,59,10.60
2008,07,20,05,00,10.60
2008,07,20,05,01,10.60
2008,07,20,05,02,10.50
2008,07,20,05,03,10.40
2008,07,20,05,04,10.40
2008,07,20,05,05,10.40
2008,07,20,05,06,10.40
2008,07,20,05,07,10.40
2008,07,20,05,08,10.40
2008,07,20,05,09,10.40
2008,07,20,05,10,10.40
2008,07,20,05,11,10.40
2008,07,20,05,12,10.40
2008,07,20,05,13,10.40
2008,07,20,05,14,10.40
2008,07,20,05,15,10.40
2008,07,20,05,16,10.40
2008,07,20,05,17,10.40
2008,07,20,05,18,10.40
2008,07,20,05,19,10.40
2008,07,20,05,20,10.40
2008,07,20,05,21,10.30
2008,07,20,05,22,10.30
2008,07,20,05,23,10.30
2008,07,20,05,24,10.30
2008,07,20,05,25,10.30
2008,07,20,05,26,10.30
2008,07,20,05,27,10.30
2008,07,20,05,28,10.30
2008,07,20,05,29,10.30
2008,07,20,05,30,10.30
2008,07,20,05,31,10.30
2008,07,20,05,32,10.30
2008,07,20,05,33,10.40
2008,07,20,05,34,10.40
2008,07,20,05,35,10.40
2008,07,20,05,36,10.40
2008,07,20,05,37,10.40
2008,07,20,05,38,10.40
2008,07,20,05,39,10.40
2008,07,20,05,40,10.40
2008,07,20,05,41,10.40
2008,07,20,05,42,10.40
2008,07,20,05,43,10.40
2008,07,20,05,44,10.40
2008,07,20,05,45,10.40
2008,07,20,05,46,10.40
2008,07,20,05,47,10.40
2008,07,20,05,48,10.40
2008,07,20,05,49,10.40
2008,07,20,05,50,10.40
2008,07,20,05,51,10.40
2008,07,20,05,52,10.40
2008,07,20,05,53,10.40
2008,07,20,05,54,10.40
2008,07,20,05,55,10.40
2008,07,20,05,56,10.40
2008,07,20,05,57,10.40
2008,07,20,05,58,10.40
2008,07,20,05,59,10.40
2008,07,20,06,00,10.40
2008,07,20,06,01,10.40
2008,07,20,06,02,10.40
2008,07,20,06,03,10.40
2008,07,20,06,04,10.40
2008,07,20,06,05,10.40
2008,07,20,06,06,10.40
2008,07,20,06,07,10.50
2008,07,20,06,08,10.60
2008,07,20,06,09,10.60
2008,07,20,06,10,10.60
2008,07,20,06,11,10.60
2008,07,20,06,12,10.60
2008,07,20,06,13,10.60
2008,07,20,06,14,10.60
2008,07,20,06,15,10.60
2008,07,20,06,16,10.60
2008,07,20,06,17,10.60
2008,07,20,06,18,10.60
2008,07,20,06,19,10.60
2008,07,20,06,20,10.60
2008,07,20,06,21,10.70
2008,07,20,06,22,10.70
2008,07,20,06,23,10.70
2008,07,20,06,24,10.70
2008,07,20,06,25,10.80
2008,07,20,06,26,10.80
2008,07,20,06,27,10.80
2008,07,20,06,28,10.90
2008,07,20,06,29,10.90
2008,07,20,06,30,10.90
2008,07,20,06,31,10.90
2008,07,20,06,32,10.90
2008,07,20,06,33,11.00
2008,07,20,06,34,11.10
2008,07,20,06,35,11.10
2008,07,20,06,36,11.10
2008,07,20,06,37,11.10
2008,07,20,06,38,11.10
2008,07,20,06,39,11.20
2008,07,20,06,40,11.20
2008,07,20,06,41,11.20
2008,07,20,06,42,11.30
2008,07,20,06,43,11.30
2008,07,20,06,44,11.30
2008,07,20,06,45,11.30
2008,07,20,06,46,11.30
2008,07,20,06,47,11.40
2008,07,20,06,48,11.40
2008,07,20,06,49,11.40
2008,07,20,06,50,11.40
2008,07,20,06,51,11.40
2008,07,20,06,52,11.50
2008,07,20,06,53,11.60
2008,07,20,06,54,11.60
2008,07,20,06,55,11.60
2008,07,20,06,56,11.60
2008,07,20,06,57,11.70
2008,07,20,06,58,11.70
2008,07,20,06,59,11.80
2008,07,20,07,00,11.80
2008,07,20,07,01,11.80
2008,07,20,07,02,11.80
2008,07,20,07,03,11.90
2008,07,20,07,04,11.90
2008,07,20,07,05,12.00
2008,07,20,07,06,12.00
2008,07,20,07,07,12.10
2008,07,20,07,08,12.10
2008,07,20,07,09,12.20
2008,07,20,07,10,12.20
2008,07,20,07,11,12.20
2008,07,20,07,12,12.30
2008,07,20,07,13,12.30
2008,07,20,07,14,12.30
2008,07,20,07,15,12.40
2008,07,20,07,16,12.40
2008,07,20,07,17,12.40
2008,07,20,07,18,12.50
2008,07,20,07,19,12.50
2008,07,20,07,20,12.50
2008,07,20,07,21,12.50
2008,07,20,07,22,12.50
2008,07,20,07,23,12.60
2008,07,20,07,24,12.60
2008,07,20,07,25,12.70
2008,07,20,07,26,12.70
2008,07,20,07,27,12.80
2008,07,20,07,28,12.80
2008,07,20,07,29,12.80
2008,07,20,07,30,12.80
2008,07,20,07,31,12.80
2008,07,20,07,32,12.80
2008,07,20,07,33,12.90
2008,07,20,07,34,12.90
2008,07,20,07,35,12.90
2008,07,20,07,36,12.90
2008,07,20,07,37,12.90
2008,07,20,07,38,12.90
2008,07,20,07,39,12.90
2008,07,20,07,40,13.00
2008,07,20,07,41,13.00
2008,07,20,07,42,13.00
2008,07,20,07,43,13.00
2008,07,20,07,44,13.00
2008,07,20,07,45,13.10
2008,07,20,07,46,13.10
2008,07,20,07,47,13.20
2008,07,20,07,48,13.30
2008,07,20,07,49,13.30
2008,07,20,07,50,13.30
2008,07,20,07,51,13.30
2008,07,20,07,52,13.30
2008,07,20,07,53,13.40
2008,07,20,07,54,13.40
2008,07,20,07,55,13.40
2008,07,20,07,56,13.50
2008,07,20,07,57,13.50
2008,07,20,07,58,13.60
2008,07,20,07,59,13.60
2008,07,20,08,00,13.70
2008,07,20,08,01,13.70
2008,07,20,08,02,13.80
2008,07,20,08,03,13.80
2008,07,20,08,04,13.90
2008,07,20,08,05,13.90
2008,07,20,08,06,14.00
2008,07,20,08,07,14.00
2008,07,20,08,08,14.10
2008,07,20,08,09,14.10
2008,07,20,08,10,14.20
2008,07,20,08,11,14.20
2008,07,20,08,12,14.20
2008,07,20,08,13,14.20
2008,07,20,08,14,14.20
2008,07,20,08,15,14.20
2008,07,20,08,16,14.30
2008,07,20,08,17,14.30
2008,07,20,08,18,14.30
2008,07,20,08,19,14.30
2008,07,20,08,20,14.40
2008,07,20,08,21,14.40
2008,07,20,08,22,14.40
2008,07,20,08,23,14.50
2008,07,20,08,24,14.50
2008,07,20,08,25,14.60
2008,07,20,08,26,14.60
2008,07,20,08,27,14.70
2008,07,20,08,28,14.80
2008,07,20,08,29,14.80
2008,07,20,08,30,14.90
2008,07,20,08,31,15.00
2008,07,20,08,32,15.00
2008,07,20,08,33,15.10
2008,07,20,08,34,15.20
2008,07,20,08,35,15.20
2008,07,20,08,36,15.20
2008,07,20,08,37,15.20
2008,07,20,08,38,15.30
2008,07,20,08,39,15.30
2008,07,20,08,40,15.30
2008,07,20,08,41,15.30
2008,07,20,08,42,15.30
2008,07,20,08,43,15.30
2008,07,20,08,44,15.30
2008,07,20,08,45,15.30
2008,07,20,08,46,15.30
2008,07,20,08,47,15.40
2008,07,20,08,48,15.40
2008,07,20,08,49,15.50
2008,07,20,08,50,15.50
2008,07,20,08,51,15.50
2008,07,20,08,52,15.60
2008,07,20,08,53,15.60
2008,07,20,08,54,15.80
2008,07,20,08,55,15.80
2008,07,20,08,56,15.90
2008,07,20,08,57,16.00
2008,07,20,08,58,16.10
2008,07,20,08,59,16.10
2008,07,20,09,00,16.10
2008,07,20,09,01,16.00
2008,07,20,09,02,15.90
2008,07,20,09,03,16.00
2008,07,20,09,04,16.10
2008,07,20,09,05,16.10
2008,07,20,09,06,16.10
2008,07,20,09,07,16.10
2008,07,20,09,08,16.10
2008,07,20,09,09,16.20
2008,07,20,09,10,16.20
2008,07,20,09,11,16.20
2008,07,20,09,12,16.20
2008,07,20,09,13,16.10
2008,07,20,09,14,16.10
2008,07,20,09,15,16.10
2008,07,20,09,16,16.10
2008,07,20,09,17,16.20
2008,07,20,09,18,16.20
2008,07,20,09,19,16.30
2008,07,20,09,20,16.40
2008,07,20,09,21,16.40
2008,07,20,09,22,16.60
2008,07,20,09,23,16.70
2008,07,20,09,24,16.70
2008,07,20,09,25,16.70
2008,07,20,09,26,16.70
2008,07,20,09,27,16.70
2008,07,20,09,28,16.70
2008,07,20,09,29,16.80
2008,07,20,09,30,16.90
2008,07,20,09,31,16.80
2008,07,20,09,32,16.90
2008,07,20,09,33,16.90
2008,07,20,09,34,16.90
2008,07,20,09,35,16.90
2008,07,20,09,36,16.90
2008,07,20,09,37,16.90
2008,07,20,09,38,16.90
2008,07,20,09,39,16.90
2008,07,20,09,40,16.90
2008,07,20,09,41,16.90
2008,07,20,09,42,17.00
2008,07,20,09,43,16.90
2008,07,20,09,44,16.90
2008,07,20,09,45,17.00
2008,07,20,09,46,17.00
2008,07,20,09,47,17.10
2008,07,20,09,48,17.10
2008,07,20,09,49,17.10
2008,07,20,09,50,17.20
2008,07,20,09,51,17.20
2008,07,20,09,52,17.20
2008,07,20,09,53,17.30
2008,07,20,09,54,17.30
2008,07,20,09,55,17.40
2008,07,20,09,56,17.40
2008,07,20,09,57,17.50
2008,07,20,09,58,17.50
2008,07,20,09,59,17.60
2008,07,20,10,00,17.60
2008,07,20,10,01,17.60
2008,07,20,10,02,17.60
2008,07,20,10,03,17.70
2008,07,20,10,04,17.70
2008,07,20,10,05,17.70
2008,07,20,10,06,17.70
2008,07,20,10,07,17.70
2008,07,20,10,08,17.60
2008,07,20,10,09,17.60
2008,07,20,10,10,17.70
2008,07,20,10,11,17.80
2008,07,20,10,12,17.90
2008,07,20,10,13,18.10
2008,07,20,10,14,18.20
2008,07,20,10,15,18.30
2008,07,20,10,16,18.40
2008,07,20,10,17,18.50
2008,07,20,10,18,18.50
2008,07,20,10,19,18.50
2008,07,20,10,20,18.50
2008,07,20,10,21,18.50
2008,07,20,10,22,18.50
2008,07,20,10,23,18.40
2008,07,20,10,24,18.30
2008,07,20,10,25,18.30
2008,07,20,10,26,18.30
2008,07,20,10,27,18.40
2008,07,20,10,28,18.50
2008,07,20,10,29,18.60
2008,07,20,10,30,18.70
2008,07,20,10,31,18.80
2008,07,20,10,32,18.70
2008,07,20,10,33,18.80
2008,07,20,10,34,18.80
2008,07,20,10,35,18.90
2008,07,20,10,36,18.90
2008,07,20,10,37,18.90
2008,07,20,10,38,19.00
2008,07,20,10,39,19.10
2008,07,20,10,40,19.10
2008,07,20,10,41,19.00
2008,07,20,10,42,18.90
2008,07,20,10,43,18.80
2008,07,20,10,44,18.80
2008,07,20,10,45,18.80
2008,07,20,10,46,18.80
2008,07,20,10,47,18.90
2008,07,20,10,48,19.10
2008,07,20,10,49,19.10
2008,07,20,10,50,19.10
2008,07,20,10,51,19.20
2008,07,20,10,52,19.20
2008,07,20,10,53,19.30
2008,07,20,10,54,19.40
2008,07,20,10,55,19.40
2008,07,20,10,56,19.40
2008,07,20,10,57,19.50
2008,07,20,10,58,19.60
2008,07,20,10,59,19.50
2008,07,20,11,00,19.40
2008,07,20,11,01,19.30
2008,07,20,11,02,19.20
2008,07,20,11,03,19.20
2008,07,20,11,04,19.20
2008,07,20,11,05,19.30
2008,07,20,11,06,19.40
2008,07,20,11,07,19.40
2008,07,20,11,08,19.50
2008,07,20,11,09,19.50
2008,07,20,11,10,19.50
2008,07,20,11,11,19.60
2008,07,20,11,12,19.60
2008,07,20,11,13,19.50
2008,07,20,11,14,19.50
2008,07,20,11,15,19.60
2008,07,20,11,16,19.70
2008,07,20,11,17,19.80
2008,07,20,11,18,19.80
2008,07,20,11,19,19.90
2008,07,20,11,20,19.80
2008,07,20,11,21,19.70
2008,07,20,11,22,19.80
2008,07,20,11,23,19.90
2008,07,20,11,24,19.90
2008,07,20,11,25,20.00
2008,07,20,11,26,20.10
2008,07,20,11,27,20.10
2008,07,20,11,28,20.10
2008,07,20,11,29,20.20
2008,07,20,11,30,20.20
2008,07,20,11,31,20.20
2008,07,20,11,32,20.30
2008,07,20,11,33,20.40
2008,07,20,11,34,20.30
2008,07,20,11,35,20.40
2008,07,20,11,36,20.50
2008,07,20,11,37,20.70
2008,07,20,11,38,20.70
2008,07,20,11,39,20.60
2008,07,20,11,40,20.50
2008,07,20,11,41,20.40
2008,07,20,11,42,20.40
2008,07,20,11,43,20.40
2008,07,20,11,44,20.40
2008,07,20,11,45,20.20
2008,07,20,11,46,20.20
2008,07,20,11,47,20.20
2008,07,20,11,48,20.30
2008,07,20,11,49,20.40
2008,07,20,11,50,20.50
2008,07,20,11,51,20.60
2008,07,20,11,52,20.60
2008,07,20,11,53,20.50
2008,07,20,11,54,20.60
2008,07,20,11,55,20.60
2008,07,20,11,56,20.80
2008,07,20,11,57,20.90
2008,07,20,11,58,21.00
2008,07,20,11,59,20.80
2008,07,20,12,00,20.70
2008,07,20,12,01,20.70
2008,07,20,12,02,20.60
2008,07,20,12,03,20.50
2008,07,20,12,04,20.40
2008,07,20,12,05,20.50
2008,07,20,12,06,20.60
2008,07,20,12,07,20.70
2008,07,20,12,08,20.80
2008,07,20,12,09,20.90
2008,07,20,12,10,21.00
2008,07,20,12,11,21.00
2008,07,20,12,12,20.90
2008,07,20,12,13,20.80
2008,07,20,12,14,20.70
2008,07,20,12,15,20.70
2008,07,20,12,16,20.70
2008,07,20,12,17,20.50
2008,07,20,12,18,20.40
2008,07,20,12,19,20.30
2008,07,20,12,20,20.40
2008,07,20,12,21,20.60
2008,07,20,12,22,20.80
2008,07,20,12,23,21.00
2008,07,20,12,24,21.10
2008,07,20,12,25,21.20
2008,07,20,12,26,21.30
2008,07,20,12,27,21.30
2008,07,20,12,28,21.50
2008,07,20,12,29,21.60
2008,07,20,12,30,21.80
2008,07,20,12,31,21.90
2008,07,20,12,32,21.90
2008,07,20,12,33,21.70
2008,07,20,12,34,21.60
2008,07,20,12,35,21.60
2008,07,20,12,36,21.60
2008,07,20,12,37,21.60
2008,07,20,12,38,21.60
2008,07,20,12,39,21.80
2008,07,20,12,40,21.70
2008,07,20,12,41,21.70
2008,07,20,12,42,21.70
2008,07,20,12,43,21.60
2008,07,20,12,44,21.60
2008,07,20,12,45,21.60
2008,07,20,12,46,21.60
2008,07,20,12,47,21.60
2008,07,20,12,48,21.60
2008,07,20,12,49,21.60
2008,07,20,12,50,21.60
2008,07,20,12,51,21.60
2008,07,20,12,52,21.70
2008,07,20,12,53,21.80
2008,07,20,12,54,21.90
2008,07,20,12,55,22.00
2008,07,20,12,56,22.00
2008,07,20,12,57,22.00
2008,07,20,12,58,22.20
2008,07,20,12,59,22.30
2008,07,20,13,00,22.40
2008,07,20,13,01,22.60
2008,07,20,13,02,22.80
2008,07,20,13,03,23.00
2008,07,20,13,04,23.20
2008,07,20,13,05,23.20
2008,07,20,13,06,23.10
2008,07,20,13,07,23.00
2008,07,20,13,08,22.90
2008,07,20,13,09,22.80
2008,07,20,13,10,22.80
2008,07,20,13,11,22.80
2008,07,20,13,12,22.80
2008,07,20,13,13,22.90
2008,07,20,13,14,23.00
2008,07,20,13,15,23.10
2008,07,20,13,16,23.20
2008,07,20,13,17,23.20
2008,07,20,13,18,23.10
2008,07,20,13,19,23.20
2008,07,20,13,20,23.30
2008,07,20,13,21,23.40
2008,07,20,13,22,23.60
2008,07,20,13,23,23.70
2008,07,20,13,24,23.90
2008,07,20,13,25,23.90
2008,07,20,13,26,23.90
2008,07,20,13,27,23.50
2008,07,20,13,28,23.00
2008,07,20,13,29,22.80
2008,07,20,13,30,22.70
2008,07,20,13,31,22.70
2008,07,20,13,32,22.90
2008,07,20,13,33,23.00
2008,07,20,13,34,23.10
2008,07,20,13,35,23.30
2008,07,20,13,36,23.20
2008,07,20,13,37,22.90
2008,07,20,13,38,22.90
2008,07,20,13,39,22.90
2008,07,20,13,40,22.90
2008,07,20,13,41,22.90
2008,07,20,13,42,22.90
2008,07,20,13,43,22.90
2008,07,20,13,44,22.80
2008,07,20,13,45,22.60
2008,07,20,13,46,22.30
2008,07,20,13,47,22.20
2008,07,20,13,48,22.20
2008,07,20,13,49,22.20
2008,07,20,13,50,22.10
2008,07,20,13,51,22.10
2008,07,20,13,52,22.10
2008,07,20,13,53,22.20
2008,07,20,13,54,22.30
2008,07,20,13,55,22.30
2008,07,20,13,56,22.30
2008,07,20,13,57,22.30
2008,07,20,13,58,22.40
2008,07,20,13,59,22.40
2008,07,20,14,00,22.40
2008,07,20,14,01,22.20
2008,07,20,14,02,22.30
2008,07,20,14,03,22.40
2008,07,20,14,04,22.40
2008,07,20,14,05,22.50
2008,07,20,14,06,22.60
2008,07,20,14,07,22.60
2008,07,20,14,08,22.70
2008,07,20,14,09,22.70
2008,07,20,14,10,22.80
2008,07,20,14,11,22.90
2008,07,20,14,12,23.00
2008,07,20,14,13,23.10
2008,07,20,14,14,23.00
2008,07,20,14,15,22.90
2008,07,20,14,16,22.80
2008,07,20,14,17,22.70
2008,07,20,14,18,22.70
2008,07,20,14,19,22.80
2008,07,20,14,20,22.80
2008,07,20,14,21,22.80
2008,07,20,14,22,22.80
2008,07,20,14,23,22.90
2008,07,20,14,24,23.10
2008,07,20,14,25,23.30
2008,07,20,14,26,23.50
2008,07,20,14,27,23.60
2008,07,20,14,28,23.70
2008,07,20,14,29,23.80
2008,07,20,14,30,23.90
2008,07,20,14,31,23.90
2008,07,20,14,32,23.80
2008,07,20,14,33,23.90
2008,07,20,14,34,24.00
2008,07,20,14,35,24.10
2008,07,20,14,36,24.10
2008,07,20,14,37,24.10
2008,07,20,14,38,24.10
2008,07,20,14,39,24.00
2008,07,20,14,40,23.90
2008,07,20,14,41,23.80
2008,07,20,14,42,23.70
2008,07,20,14,43,23.70
2008,07,20,14,44,23.80
2008,07,20,14,45,23.80
2008,07,20,14,46,23.70
2008,07,20,14,47,23.70
2008,07,20,14,48,23.70
2008,07,20,14,49,23.70
2008,07,20,14,50,23.70
2008,07,20,14,51,23.40
2008,07,20,14,52,23.30
2008,07,20,14,53,23.30
2008,07,20,14,54,23.20
2008,07,20,14,55,23.00
2008,07,20,14,56,22.90
2008,07,20,14,57,23.00
2008,07,20,14,58,23.20
2008,07,20,14,59,23.10
2008,07,20,15,00,22.90
2008,07,20,15,01,22.80
2008,07,20,15,02,22.80
2008,07,20,15,03,22.90
2008,07,20,15,04,22.90
2008,07,20,15,05,23.10
2008,07,20,15,06,23.20
2008,07,20,15,07,23.30
2008,07,20,15,08,23.30
2008,07,20,15,09,23.30
2008,07,20,15,10,23.30
2008,07,20,15,11,23.30
2008,07,20,15,12,23.30
2008,07,20,15,13,23.40
2008,07,20,15,14,23.40
2008,07,20,15,15,23.40
2008,07,20,15,16,23.30
2008,07,20,15,17,23.20
2008,07,20,15,18,23.10
2008,07,20,15,19,23.20
2008,07,20,15,20,23.30
2008,07,20,15,21,23.40
2008,07,20,15,22,23.40
2008,07,20,15,23,23.40
2008,07,20,15,24,23.40
2008,07,20,15,25,23.60
2008,07,20,15,26,23.70
2008,07,20,15,27,23.70
2008,07,20,15,28,23.70
2008,07,20,15,29,23.70
2008,07,20,15,30,23.70
2008,07,20,15,31,23.70
2008,07,20,15,32,23.60
2008,07,20,15,33,23.60
2008,07,20,15,34,23.70
2008,07,20,15,35,23.70
2008,07,20,15,36,23.70
2008,07,20,15,37,23.70
2008,07,20,15,38,23.70
2008,07,20,15,39,23.70
2008,07,20,15,40,23.70
2008,07,20,15,41,23.70
2008,07,20,15,42,23.70
2008,07,20,15,43,23.70
2008,07,20,15,44,23.70
2008,07,20,15,45,23.70
2008,07,20,15,46,23.70
2008,07,20,15,47,23.70
2008,07,20,15,48,23.70
2008,07,20,15,49,23.70
2008,07,20,15,50,23.80
2008,07,20,15,51,23.70
2008,07,20,15,52,23.70
2008,07,20,15,53,23.80
2008,07,20,15,54,23.70
2008,07,20,15,55,23.70
2008,07,20,15,56,23.80
2008,07,20,15,57,23.80
2008,07,20,15,58,23.60
2008,07,20,15,59,23.60
2008,07,20,16,00,23.50
2008,07,20,16,01,23.60
2008,07,20,16,02,23.70
2008,07,20,16,03,23.70
2008,07,20,16,04,23.70
2008,07,20,16,05,23.60
2008,07,20,16,06,23.60
2008,07,20,16,07,23.60
2008,07,20,16,08,23.60
2008,07,20,16,09,23.40
2008,07,20,16,10,23.40
2008,07,20,16,11,23.40
2008,07,20,16,12,23.40
2008,07,20,16,13,23.30
2008,07,20,16,14,23.40
2008,07,20,16,15,23.60
2008,07,20,16,16,23.70
2008,07,20,16,17,23.70
2008,07,20,16,18,23.60
2008,07,20,16,19,23.60
2008,07,20,16,20,23.50
2008,07,20,16,21,23.40
2008,07,20,16,22,23.50
2008,07,20,16,23,23.60
2008,07,20,16,24,23.70
2008,07,20,16,25,23.70
2008,07,20,16,26,23.70
2008,07,20,16,27,23.70
2008,07,20,16,28,23.70
2008,07,20,16,29,23.90
2008,07,20,16,30,24.00
2008,07,20,16,31,24.10
2008,07,20,16,32,24.20
2008,07,20,16,33,24.30
2008,07,20,16,34,24.30
2008,07,20,16,35,24.20
2008,07,20,16,36,24.30
2008,07,20,16,37,24.30
2008,07,20,16,38,24.30
2008,07,20,16,39,24.10
2008,07,20,16,40,24.00
2008,07,20,16,41,24.00
2008,07,20,16,42,24.10
2008,07,20,16,43,24.00
2008,07,20,16,44,23.80
2008,07,20,16,45,23.70
2008,07,20,16,46,23.70
2008,07,20,16,47,23.70
2008,07,20,16,48,23.70
2008,07,20,16,49,23.70
2008,07,20,16,50,23.70
2008,07,20,16,51,23.70
2008,07,20,16,52,23.60
2008,07,20,16,53,23.50
2008,07,20,16,54,23.40
2008,07,20,16,55,23.40
2008,07,20,16,56,23.60
2008,07,20,16,57,23.60
2008,07,20,16,58,23.60
2008,07,20,16,59,23.60
2008,07,20,17,00,23.50
2008,07,20,17,01,23.60
2008,07,20,17,02,23.70
2008,07,20,17,03,23.70
2008,07,20,17,04,23.70
2008,07,20,17,05,23.70
2008,07,20,17,06,23.70
2008,07,20,17,07,23.70
2008,07,20,17,08,23.70
2008,07,20,17,09,23.70
2008,07,20,17,10,23.70
2008,07,20,17,11,23.60
2008,07,20,17,12,23.60
2008,07,20,17,13,23.60
2008,07,20,17,14,23.60
2008,07,20,17,15,23.70
2008,07,20,17,16,23.70
2008,07,20,17,17,23.70
2008,07,20,17,18,23.70
2008,07,20,17,19,23.70